Showing default

COSMOS 1690, 16138

Orbit data source: Space-Track

COSMOS 1690, 16138 is a payload satellite owned by GUKOS (CIS) in LEO that was launched on Wed, 09 Oct 1985 UTC via a TSIKLON-3 launch vehicle from the Plesetsk Missile And Space Complex (PKMTR). Payloads include a variety of satellites, spacecraft, and rockets equipped with specific instruments for various scientific and technological missions. These include communications satellites like Starlink; space stations such as the ISS; scientific satellites like the Hubble; Earth observation satellites from companies like Planet Labs, Umbra, and HawkEye 360; GPS; miniature CubeSats for education and research; and military/defense satellites.

Loading next visibility...
COSMOS 1690 details
Identifier
16138, 1985-094A
Orbit
LEO
Last TLE update8 hours ago
Origin
Flag of CISGUKOS (CIS)
ManufacturerNPO PM
MissionDefense Communications
Bus & MotorSTRELA-3, Unknown motor
Mass225 kg wet, 225 kg dry
Launch date (UTC)
1985-10-09 (39 years ago)
Launch vehicle
TSIKLON-3
Launch site
Plesetsk Missile And Space Complex (PKMTR)
Object type
Payload
Rocket body
Debris
Shape & HBRCyl, 1.6 m
Radar Cross Section1.257 m², Large (>1 m²)

Expand to show TLE details & history

TLE from 8 hours ago
0 COSMOS 1690
1 16138U 85094A   24361.54281316  .00000048  00000-0  19519-3 0  9991
2 16138  82.6065 205.1780 0022531  82.1525 335.9132 12.66083647811950
Epoch: 2024-12-26T13:01Z
Definitive object data (Epoch: 2024-12-26T13:01:39.057Z)
Latitude57.29777°
Longitude-74.15377°
Altitude1,391.51 km
Speed7.177 km/s
True Right ascension14h 27m 07s
True Declination57° 09' 14"
Sunlit
Object was in daylight at TLE epoch
Visualization TLE readout
Latitude62.12306°
Longitude-71.82971°
Altitude1,391.921 km
Speed7.177 km/s
Apparent Right ascension10h 39m 50s
Apparent Declination26° 11' 47"
Sunlit
Object is in daylight
Visualization observer readout
Local Sidereal Time20:01:15
Azimuth323.789° NNW
Elevation-14.28°
Doppler factor1
Orbital elements
Apogee altitude1,412.763 km
Perigee altitude1,377.734 km
Semi-major axis7,773.386 km
Eccentricity0.0022531
Inclination82.6065°
RAAN205.178°
Arg. of periapsis82.1525°
True anomaly335.80756°
Mean anomaly335.9132°
Eccentric anomaly335.86041°
Mean motion3.16685 °/min
BSTAR0.00019519
Orbital period113.68 mins
Loading maneuver chart data...
Loading historical data...
Loading historical data...
Loading historical data...
Loading historical data...
Loading historical data...
Loading historical data...
Loading historical data...

COSMOS 1690 Visibility forecast

Observer location: undefined°, undefined

Span
Click to sort rows by Start time (UTC) header in descending order
Start Az.
Max El. time (UTC)
Max El. Az.
Max El.
End time (UTC)
End Az.
14 mins2024-12-27 00:42:23.807Z8.561° NNE2024-12-27 00:49:23.807Z73.448° E32.024°2024-12-27 00:56:23.807Z138.19° SSE
13 mins2024-12-27 02:38:23.807Z332.622° NNW2024-12-27 02:44:23.807Z266.127° W33.964°2024-12-27 02:51:23.807Z205.807° SW
13 mins2024-12-27 13:29:23.807Z144.357° SSE2024-12-27 13:35:23.807Z85.211° E31.27°2024-12-27 13:42:23.807Z23.921° NE
14 mins2024-12-27 15:23:23.807Z219.263° SW2024-12-27 15:29:23.807Z277.693° WNW34.493°2024-12-27 15:37:23.807Z355.126° N
|